Home   Weather   Aachen   Past weeks

Flag for Germany Past Weather in Aachen, North Rhine-Westphalia, Germany — Yesterday and Last 2 Weeks

Now
32 °F

Passing clouds.


Feels Like: 32 °F
Forecast: 24 / 39 °F
Wind: 1 mph from East

Location: Maastricht Airport Zuid Limburg

Current Time: Dec 3, 2016 at 3:40:18 am

Latest Report: Dec 3, 2016 at 2:00 am


Visibility: 0 mi

Pressure: 30.26 "Hg

Humidity: 99%

Dew Point: 32 °F

Location of AachenLocation

Past Weather in Aachen — Graph

°F

Aachen Temperature Yesterday

Maximum temperature yesterday: 47 °F (at 1:00 pm)
Minimum temperature yesterday: 39 °F (at 10:00 pm)
Average temperature yesterday: 43 °F

High & Low Weather Summary for the Past Weeks

 TemperatureHumidityPressure
High57 °F (Nov 21, 12:00 pm)100% (Dec 2, 1:00 am)30.57 "Hg (Dec 2, 1:00 am)
Low23 °F (Nov 30, 4:00 am)56% (Nov 30, 3:00 pm)29.23 "Hg (Nov 20, 11:00 am)
Average42 °F83%30.03 "Hg
* Reported Nov 18 2:00 am — Dec 3 2:00 am, Aachen, Weather by CustomWeather, © 2016

Note: Actual official high and low records may vary slightly from our data, if they occured in-between our weather recording intervals... More about our weather records

Advertising

Aachen Weather History for the Previous 24 Hours

Scroll right to see more
 ConditionsComfort  
Time TempWeatherWind HumidityBarometerVisibility
2:00 am
Sat, Dec 3
32 °FPassing clouds.1 mph99%30.26 "Hg0 mi
1:00 am35 °FClear.2 mph98%30.26 "Hg2 mi
12:00 am37 °FFog.2 mph98%30.26 "Hg5 mi
11:00 pm
Fri, Dec 2
39 °FFog.3 mph97%30.25 "Hg3 mi
10:00 pm39 °FFog.5 mph96%30.25 "Hg4 mi
9:00 pm42 °FOvercast.3 mph94%30.25 "Hg6 mi
8:00 pm42 °FOvercast.3 mph91%30.25 "Hg8 mi
7:00 pm42 °FOvercast.2 mph96%30.24 "Hg9 mi
6:00 pm42 °FOvercast.1 mph94%30.24 "Hg10 mi
4:00 pm44 °FRain showers. Low clouds.5 mph93%30.23 "Hg4 mi
3:00 pm46 °FLow clouds.3 mph92%30.22 "Hg14 mi
2:00 pm47 °FLow clouds.2 mph95%30.23 "Hg4 mi
1:00 pm47 °FRain showers. Low clouds.2 mph91%30.24 "Hg6 mi
12:00 pm46 °FFog.2 mph93%30.24 "Hg6 mi
11:00 am45 °FFog.2 mph97%30.24 "Hg2 mi
10:00 am44 °FLow clouds.2 mph98%30.24 "Hg2 mi
9:00 am44 °FLow clouds.2 mph97%30.24 "Hg2 mi
8:00 am43 °FFog.2 mph96%30.23 "Hg2 mi
7:00 am43 °FFog.2 mph97%30.23 "Hg2 mi
6:00 am43 °FFog.2 mph97%30.23 "Hg1 mi
5:00 am42 °FFog.2 mph98%30.24 "Hg1 mi
4:00 am42 °FLow clouds.2 mph98%30.24 "Hg1 mi
3:00 am43 °FLow clouds.3 mph97%30.25 "Hg1 mi
Weather by CustomWeather, © 2016

See weather overviewHow to use our weather pages